Regional Weather Roundup
Issued by NWS Upton, NY

Current Version | Previous Version | Text Only | Print | Product List | Glossary Off
Versions: 1 2 3 4 5 6 7 8 9 10 11 12 13 14 15 16 17 18 19 20 21 22 23 24 25 26 27 28 29 30 31 32 33 34 35 36 37 38 39 40 41 42 43 44 45 46 47 48 49 50
000 ASUS41 KOKX 291505 RWROKX REGIONAL WEATHER ROUNDUP NATIONAL WEATHER SERVICE NEW YORK NY 1000 AM EST THU JAN 29 2015 NOTE: "FAIR" INDICATES FEW OR NO CLOUDS BELOW 12,000 FEET WITH NO SIGNIFICANT WEATHER AND/OR OBSTRUCTIONS TO VISIBILITY. NYZ071-072-176-178-NJZ106-104-291600- NEW YORK CITY METRO AREA CITY SKY/WX TMP DP RH WIND PRES REMARKS CENTRAL PARK SUNNY 27 5 39 N5 30.33F WCI 22 LAGUARDIA APRT PTSUNNY 25 2 37 NE5 30.32F WCI 19 KENNEDY INTL MOSUNNY 25 5 42 NE6 30.33F WCI 18 NEWARK/LIBERTY PTSUNNY 23 5 46 N6 30.32F WCI 16 BRNX BOT. GARD N/A N/A N/A N/A SE3 30.33R TETERBORO SUNNY 24 2 38 N3 30.32 $$ NYZ177-179-078>081-291600- LONG ISLAND NEW YORK CITY SKY/WX TMP DP RH WIND PRES REMARKS FARMINGDALE SUNNY 26 8 46 NE3 30.31F ISLIP PTSUNNY 26 10 50 N6 30.31S WCI 19 SHIRLEY SUNNY 28 10 46 NW5 30.34R WCI 23 WESTHAMPTON SUNNY 27 9 46 N5 30.34S WCI 22 MONTAUK POINT N/A 29 15 56 N3 30.33S $$ NYZ052-065-067-291600- HUDSON VALLEY CITY SKY/WX TMP DP RH WIND PRES REMARKS WHITE PLAINS SUNNY 25 -1 32 E3 30.28F NEWBURGH SUNNY 16 3 57 CALM 30.31F MONTGOMERY SUNNY 11 1 64 CALM 30.29F POUGHKEEPSIE SUNNY 14 2 58 CALM 30.33F ALBANY PTSUNNY 8 -1 66 W3 30.31 $$ NJZ001-105-106-008-010-013-015-019>022-104-291600- NEW JERSEY CITY SKY/WX TMP DP RH WIND PRES REMARKS NEWARK/LIBERTY PTSUNNY 23 5 46 N6 30.32F WCI 16 TETERBORO SUNNY 24 2 38 N3 30.32 CALDWELL SUNNY 20 -1 40 CALM 30.32F MORRISTOWN PTSUNNY 21 5 49 E5 30.32F WCI 15 SOMERVILLE SUNNY 23 5 46 CALM 30.30F SUSSEX SUNNY 10 2 69 CALM 30.28F ANDOVER N/A 17 3 54 N6 30.28F WCI 9 TRENTON MOSUNNY 22 4 46 CALM 30.31F MILLVILLE MOSUNNY 29 8 41 VRB3 30.32S ATLANTIC CITY SUNNY 28 9 44 CALM 30.32F WRIGHTSTOWN MOSUNNY 24 5 45 N3 30.29F TOMS RIVER SUNNY 21 7 53 NE3 30.32F BELMAR SUNNY 25 5 42 CALM 30.30F $$ PAZ047>061-062-071-291600- EASTERN PENNSYLVANIA CITY SKY/WX TMP DP RH WIND PRES REMARKS PHILADELPHIA PTSUNNY 29 6 38 E8 30.33S WCI 21 ALLENTOWN FAIR 17 4 56 NE8 30.29 WCI 7 SCRANTON MOSUNNY 15 5 64 NE3 30.21F $$ CTZ002-004>006-009-010-012-RIZ004-006-007-MAZ004-011-015-291600- SOUTHERN NEW ENGLAND IN CT CITY SKY/WX TMP DP RH WIND PRES REMARKS BRADLEY INTL PTSUNNY 14 -2 49 CALM 30.33 HARTFORD SUNNY 14 4 64 CALM 30.36S DANBURY SUNNY 17 0 47 CALM 30.30F WTRBRY/OXFORD PTSUNNY 21 0 39 CALM 30.29R BRIDGEPORT SUNNY 24 5 44 NE6 30.33F WCI 17 MERIDEN SUNNY 19 1 45 CALM 30.34S NEW HAVEN SUNNY 20 2 45 N9 30.33S WCI 9 CHESTER FAIR 23 1 39 CALM 30.31R GROTON SUNNY 20 0 41 N9 30.32S WCI 9 WILLIMANTIC SUNNY 9 0 67 CALM 30.33F IN RI CITY SKY/WX TMP DP RH WIND PRES REMARKS PROVIDENCE PTSUNNY 16 3 56 CALM 30.33S BLOCK ISLAND N/A 28 16 59 NE6 30.30S WCI 22 WESTERLY SUNNY 23 -1 35 NE5 30.33R WCI 17 IN MA CITY SKY/WX TMP DP RH WIND PRES REMARKS BOSTON MOSUNNY 22 4 46 NW3 30.33R WORCESTER SUNNY 24 -6 26 E3 30.25S WESTFIELD SUNNY 13 -1 54 CALM 30.33R PROVINCETOWN SUNNY 34 19 55 NE8 30.30S WCI 27 NANTUCKET SUNNY 31 22 69 N10 30.29S WCI 22 $$ ANZ330-335-338-340-345-350-353-355-291600- COASTAL MARINE OBSERVATIONS STATION/POSITION TIME SKY/WX TEMP WIND PRES VSBY WAVE AIR SEA DIR/SP/G HT/PER (UTC) (F) (DEG/KT/KT) (MB) (MI) (FT/S) NY HARB ENTRANCE 1500 27 39 60/ 6/ 10 1026.5 2/10 4S FIRE IS NOT AVBL 20S FIRE ISLAND 1400 42 1027.5 3/11 23SW MTP 1500 N/A 3/11 HUDSON CANYON NOT AVBL EXECUTION ROCKS 1500 30 33 80/ 8/ 10 N/A WESTERN LI SOUND 1500 23 60/ 6/ 8 N/A 0 CENTRAL LI SOUND 1400 24 35 350/ 4/ 6 N/A 1/ 2 EASTERN LI SOUND NOT AVBL ROBBINS REEF 1500 23 320/ 3/ 4 1025.6 $$ >>>>>>>>>>>>>>>>>>>>>>>>>>>> KEY <<<<<<<<<<<<<<<<<<<<<<<<<<< > < > SKY/WX - SKY CONDITION/PRESENT WEATHER < > TMP - TEMPERATURE IN FAHRENHEIT < > DP - DEWPOINT IN FAHRENHEIT < > RH - RELATIVE HUMIDITY IN PERCENT < > WIND - DIRECTION AND SPEED IN MPH < > PRES - MEAN SEA LEVEL PRESSURE IN INCHES OF HG < > WCI - WIND CHILL INDEX < > VSB - VISIBILITY IN MILES < > HX - HEAT INDEX < > TC - TEMPERATURE IN CELSIUS < > VRB - VARIABLE WIND DIRECTION < > < >>>>>>>>>>>>>>>>>>>>>>>>>>>> KEY <<<<<<<<<<<<<<<<<<<<<<<<<<<

USA.gov is the U.S. government's official web portal to all federal, state and local government web resources and services.